Hourly Data Report for October 02, 2017

All times are specified in Local Standard Time (LST). Add 1 hour to adjust for Daylight Saving Time where and when it is observed.

FISHER BRANCH (AUT)
MANITOBA

51°05'00.100" N
97°33'16.200" W
253.00 m
50309J6
71442
WSZ

Download Data

Hourly Data (October 2017)
Hourly Data Report for October 2, 2017
Temp Definition
°C
Dew Point Temp Definition
°C
Rel Hum Definition
%
Wind Dir Definition
10's deg

Wind Spd Definition
km/h
Visibility Definition
km
Stn Press Definition
kPa
Hmdx Definition


Wind Chill Definition


Weather Definition


TIME
00:00 13.6 12.9 96 14 10   97.25     LegendNANA
01:00 13.6 12.9 96 15 16   97.35     LegendNANA
02:00 13.3 12.8 96 9 9   97.17     LegendNANA
03:00 13.3 12.8 97 11 16   97.22     LegendNANA
04:00 13.4 12.9 97 10 15   97.17     LegendNANA
05:00 13.5 13.1 97 12 16   97.14     LegendNANA
06:00 13.8 13.4 97 12 14   97.18     LegendNANA
07:00 14.0 13.5 97 13 15   97.17     LegendNANA
08:00 14.2 13.6 97 14 13   97.18     LegendNANA
09:00 14.2 13.6 96 14 15   97.20     LegendNANA
10:00 13.0 11.9 93 20 15   97.27     LegendNANA
11:00 13.5 12.0 90 19 20   97.31     LegendNANA
12:00 12.6 10.1 85 20 22   97.39     LegendNANA
13:00 12.6 9.2 80 20 24   97.45     LegendNANA
14:00 12.0 7.6 75 20 28   97.53     LegendNANA
15:00 13.2 7.4 68 20 25   97.58     LegendNANA
16:00 13.2 5.8 61 21 23   97.64     LegendNANA
17:00 13.3 6.1 61 20 16   97.71     LegendNANA
18:00 12.2 5.4 63 21 13   97.79     LegendNANA
19:00 9.8 5.3 73 20 7   97.86     LegendNANA
20:00 8.1 5.0 81 19 6   98.00     LegendNANA
21:00 8.2 4.7 79 20 7   98.11     LegendNANA
22:00 7.3 3.9 79 19 8   98.12     LegendNANA
23:00 5.5 2.4 81 18 6   98.11     LegendNANA

Notes on Data Quality.

Legend

  • E = Estimated
  • M = Missing
  • NA = Not Available
  • ‡ = Partner data that is not subject to review by the National Climate Archives
Date modified: